Sheboygan, WI

8:54 AM CDT on April 27, 2017 (GMT -0500)
Sheboygan County Memorial

Weather History for KSBM - July, 2013

Change the Weather History Date:

Saturday, July 27, 2013

  Actual Average Record
Temperature  
Mean Temperature 56 °F -  
Max Temperature 60 °F 78 °F 100 °F (1955)
Min Temperature 51 °F 62 °F 50 °F (2001)
Degree Days  
Heating Degree Days 10    
Growing Degree Days 6 (Base 50)    
Moisture  
Dew Point 50 °F    
Average Humidity 83    
Maximum Humidity 100    
Minimum Humidity 62    
Precipitation  
Precipitation 0.00 in - - ()
Sea Level Pressure  
Sea Level Pressure 29.89 in    
Wind  
Wind Speed 10 mph (NW)    
Max Wind Speed 14 mph    
Max Gust Speed 21 mph    
Visibility 10 miles    
Events      
Averages and records for this station are not official NWS values.
T = Trace of Precipitation, MM = Missing Value Source: NWS Daily Summary

Daily Weather History Graph

Daily Weather History Graph

Search for Another Location

Airport or City:

Trip Planner

Search our weather history database for the weather conditions in past years. The results will help you decide how hot, cold, wet, or windy it might be!

Date:

Astronomy

Jul. 27, 2013 Rise Set
Actual Time 5:35 AM CDT 8:20 PM CDT
Civil Twilight 5:01 AM CDT 8:53 PM CDT
Nautical Twilight 4:19 AM CDT 9:35 PM CDT
Astronomical Twilight 3:30 AM CDT 10:23 PM CDT
Moon 10:52 PM CDT 11:28 AM CDT
Length of Visible Light 15h 51m
Length of Day
14h 44m
Waning Gibbous, 70% of the Moon is Illuminated
Jul 27
Waning Gibbous
Jul 29
Last Quarter
Aug 6
New
Aug 14
First Quarter
Aug 20
Full

Hourly Weather History & Observations

Time (CDT) Temp. Dew Point Humidity Pressure Visibility Wind Dir Wind Speed Gust Speed Precip Events Conditions
12:07 AM 57.2 °F 55.4 °F 94% 29.88 in 10.0 mi NNW 11.5 mph - N/A   Scattered Clouds
12:16 AM 57.2 °F 57.2 °F 100% 29.88 in 10.0 mi NNW 10.4 mph - N/A   Mostly Cloudy
12:53 AM 57.9 °F 57.0 °F 97% 29.89 in 10.0 mi NNW 9.2 mph - N/A   Overcast
1:15 AM 59.0 °F 57.2 °F 94% 29.88 in 10.0 mi NNW 11.5 mph 16.1 mph N/A   Overcast
1:31 AM 57.2 °F 55.4 °F 94% 29.88 in 10.0 mi North 13.8 mph 20.7 mph N/A   Overcast
1:46 AM 57.2 °F 55.4 °F 94% 29.89 in 10.0 mi North 10.4 mph 17.3 mph N/A   Overcast
1:53 AM 57.0 °F 55.9 °F 96% 29.89 in 10.0 mi North 10.4 mph - N/A   Overcast
2:53 AM 55.0 °F 53.1 °F 93% 29.90 in 10.0 mi NNW 11.5 mph - N/A   Overcast
3:04 AM 55.4 °F 51.8 °F 88% 29.90 in 10.0 mi NNW 11.5 mph - N/A   Overcast
3:53 AM 54.0 °F 51.1 °F 90% 29.90 in 10.0 mi NNW 8.1 mph - N/A   Overcast
4:51 AM 53.6 °F 48.2 °F 82% 29.91 in 10.0 mi NNW 9.2 mph - N/A   Overcast
4:53 AM 53.1 °F 50.0 °F 89% 29.91 in 10.0 mi NNW 5.8 mph - N/A   Overcast
5:53 AM 52.0 °F 48.9 °F 89% 29.93 in 10.0 mi NW 9.2 mph - N/A   Overcast
6:28 AM 51.8 °F 48.2 °F 88% 29.93 in 10.0 mi NW 6.9 mph - N/A   Overcast
6:49 AM 51.8 °F 48.2 °F 88% 29.92 in 10.0 mi North 6.9 mph - N/A   Overcast
6:53 AM 52.0 °F 48.0 °F 86% 29.92 in 10.0 mi North 9.2 mph - N/A   Overcast
7:53 AM 53.1 °F 48.0 °F 83% 29.93 in 10.0 mi NNW 9.2 mph - N/A   Overcast
8:53 AM 54.0 °F 46.0 °F 75% 29.92 in 10.0 mi NNW 11.5 mph - N/A   Overcast
9:53 AM 54.0 °F 46.9 °F 77% 29.91 in 10.0 mi NW 12.7 mph - N/A   Overcast
10:53 AM 55.9 °F 46.0 °F 69% 29.90 in 10.0 mi WNW 12.7 mph 19.6 mph N/A   Overcast
11:53 AM 54.0 °F 46.0 °F 75% 29.91 in 10.0 mi NW 12.7 mph 18.4 mph N/A   Overcast
12:53 PM 55.9 °F 46.0 °F 69% 29.90 in 10.0 mi WNW 9.2 mph - N/A   Overcast
1:03 PM 57.2 °F 46.4 °F 67% 29.89 in 10.0 mi NW 9.2 mph - N/A   Overcast
1:53 PM 57.0 °F 46.0 °F 67% 29.89 in 10.0 mi NW 11.5 mph - N/A   Overcast
2:53 PM 57.0 °F 45.0 °F 64% 29.89 in 10.0 mi NW 9.2 mph 18.4 mph N/A   Overcast
3:53 PM 60.1 °F 46.9 °F 62% 29.87 in 10.0 mi West 10.4 mph - N/A   Overcast
4:53 PM 59.0 °F 48.0 °F 67% 29.87 in 10.0 mi West 8.1 mph - N/A   Overcast
5:53 PM 57.9 °F 46.9 °F 67% 29.87 in 10.0 mi West 9.2 mph - N/A   Overcast
6:53 PM 57.0 °F 48.9 °F 74% 29.87 in 10.0 mi West 4.6 mph - N/A   Overcast
7:53 PM 57.0 °F 51.1 °F 81% 29.86 in 10.0 mi SW 4.6 mph - N/A   Overcast
8:53 PM 55.9 °F 50.0 °F 80% 29.86 in 10.0 mi NNE 4.6 mph - N/A   Overcast
9:53 PM 54.0 °F 52.0 °F 93% 29.86 in 10.0 mi Calm Calm - N/A   Overcast
10:25 PM 53.6 °F 51.8 °F 94% 29.85 in 10.0 mi Calm Calm - N/A   Overcast
10:51 PM 53.6 °F 51.8 °F 94% 29.85 in 10.0 mi SW 5.8 mph - N/A   Overcast
10:53 PM 54.0 °F 51.1 °F 90% 29.85 in 10.0 mi WSW 6.9 mph - N/A   Overcast
11:53 PM 54.0 °F 51.1 °F 90% 29.84 in 10.0 mi WSW 4.6 mph - N/A   Overcast